Location: Croissy-Beaubourg
(48.8283°N, 2.6696°E)
Time: 04:14:42
(UTC+00:00)

Cosmos 2082 - Pass Details

Date: 21 August 2022
Orbit: 832 x 856 km, 71.0° (Epoch: 29 September)

Event Time Altitude Azimuth Distance (km) Brightness Sun altitude
Rises 02:37:05 0° 331° (NNW) 3,411 7.1 -19.0°
Reaches altitude 10° 02:39:32 10° 332° (NNW) 2,476 6.3 -18.8°
Maximum altitude 02:45:15 89° 240° (WSW) 856 3.7 -18.1°
Drops below altitude 10° 02:50:57 10° 154° (SSE) 2,475 5.9 -17.5°
Sets 02:53:23 0° 155° (SSE) 3,410 6.7 -17.2°
